Probability
0 0 0 0 0 0 0 0 0 0 0 0 0 0 0 0 0 0 0 0 0 0 0 0 0 0 0 0 0 0 0 0 0 0 0 0 0 0 0 0 0 0 0 0
0 0 0 0 0 0 0 0 0 0 0 0 0 0 0 0 0 0 0 0 0 0 0 0 0 0 0 0 0 0 0 0 0 0 0 0 0 0 0 0 0 0 0 0
0 0 0 0 0 0 0 0 0 0 0 0 0 0 0 0 0 0 0 0 0 0 0 0 0 0 0 0 0 0 0 0 0 0 0 0 0 0 0 0 0 0 0 0
0 0 0 0 0 0 0 0 0 0 0 0 0 0 0 0 0 0 0 0 0 0 0 0 0 0 0 0 0 0 0 0 0 0 0 0 0 0 0 0 0 0 0 0
0 0 0 0 0 0 0 0 0 0 0 0 0 0 0 0 0 0 0 0 0 0 0 0 0 0 0 0 0 0 0 0 0 0 0 0 0 0 0 0 0 0 0 0
0 0 0 0 0 0 0 0 0 0 0 0 0 0 0 0 0 0 0 0 0 0 0 0 0 0 0 0 0 0 0 0 0 0 0 0 0 0 0 0 0 0 0 0
0 0 0 0 0 0 0 0 0 0 0 0 0 0 0 0 0 0 0 0 0 0 0 0 0 0 0 0 0 0 0 0 0 0 0 0 0 0 0 0 0 0 0 0
0 0 0 0 0 0 0 0 0 0 0 0 0 0 0 0 0 0 0 0 0 0 0 0 0 0 0 0 0 0 0 0 0 0 0 0 0 0 0 0 0 0 0 0
0 0 0 0 0 0 0 0 0 0 0 0 0 0 0 0 0 0 0 0 0 0 0 0 0 0 0 0 0 0 0 0 0 0 0 0 0 0 0 0 0 0 0 0
0 0 0 0 0 0 0 0 0 0 0 0 0 0 0 0 0 0 0 0 0 0 0 0 0 0 0 0 0 0 0 0 0 0 0 0 0 0 0 0 0 0 0 0
0 0 0 0 0 0 0 0 0 0 0 0 0 0 0 0 0 0 0 0 0 0 0 0 0 0 0 0 0 0 0 0 0 0 0 0 0 0 0 0 0 0 0 0
0 0 0 0 0 0 0 0 0 0 0 0 0 0 0 0 0 0 0 0 0 0 0 0 0 0 0 0 0 0 0 0 0 0 0 0 0 0 0 0 0 0 0 0
0 0 0 0 0 0 0 0 0 0 0 0 0 0 0 0 0 0 0 0 0 0 0 0 0 0 0 0 0 0 0 0 0 0 0 0 0 0 0 0 0 0 0 0
0 0 0 0 0 0 0 0 0 0 0 0 0 0 0 0 0 0 0 0 0 0 0 0 0 0 0 0 0 0 0 0 0 0 0 0 0 0 0 0 0 0 0 0
0 0 0 0 0 0 0 0 0 0 0 0 0 0 0 0 0 0 0 0 0 0 0 0 0 0 0 0 0 0 0 0 0 0 0 0 0 0 0 0 0 0 0 0
0 0 0 0 0 0 0 0 0 0 0 0 0 0 0 0 0 0 0 0 0 0 0 0 0 0 0 0 0 0 0 0 0 0 0 0 0 0 0 0 0 0 0 0
0 0 0 0 0 0 0 0 0 0 0 0 0 0 0 0 0 0 0 0 0 0 0 0 0 0 0 0 0 0 0 0 0 0 0 0 0 0 0 0 0 0 0 0
0 0 0 0 0 0 0 0 0 0 0 0 0 0 0 0 0 0 0 0 0 0 0 0 0 0 0 0 0 0 0 0 0 0 0 0 0 0 0 0 0 0 0 0
0 0 0 0 0 0 0 0 0 0 0 0 0 0 0 0 0 0 0 0 0 0 0 0 0 0 0 0 0 0 0 0 0 0 0 0 0 0 0 0 0 0 0 0
0 0 0 0 0 0 0 0 0 0 0 0 0 0 0 0 0 0 0 0 0 0 0 0 0 0 0 0 0 0 0 0 0 0 0 0 0 0 0 0 0 0 0 0
0 0 0 0 0 0 0 0 0 0 0 0 0 0 0 0 0 0 0 0 0 0 0 0 0 0 0 0 0 0 0 0 0 0 0 0 0 0 0 0 0 0 0 0
0 0 0 0 0 0 0 0 0 0 0 0 0 0 0 0 0 0 0 0 0 0 0 0 0 0 0 0 0 0 0 0 0 0 0 0 0 0 0 0 0 0 0 0
0 0 0 0 0 0 0 0 0 0 0 0 0 0 0 0 0 0 0 0 0 0 0 0 0 0 0 0 0 0 0 0 0 0 0 0 0 0 0 0 0 0 0 0
0 0 0 0 0 0 0 0 0 0 0 0 0 0 0 0 0 0 0 0 0 0 0 0 0 0 0 0 0 0 0 0 0 0 0 0 0 0 0 0 0 0 0 0
0 0 0 0 0 0 0 0 0 0 0 0 0 0 0 0 0 0 0 0 0 0 0 0 0 0 0 0 0 0 0 0 0 0 0 0 0 0 0 0 0 0 0 0
0 0 0 0 0 0 0 0 0 0 0 0 0 0 0 0 0 0 0 0 0 0 0 0 0 0 0 0 0 0 0 0 0 0 0 0 0 0 0 0 0 0 0 0
0 0 0 0 0 0 0 0 0 0 0 0 0 0 0 0 0 0 0 0 0 0 0 0 0 0 0 0 0 0 0 0 0 0 0 0 0 0 0 0 0 0 0 0
Wind_Speed
6 4 5 7 8 9 11 11 12 11 13 18 11 9 8 7 5 4 5 6 7 8 7 7 7 7 7 6 5 5 5 4 5 4 4 4 4 5 5 5 6 6 6 7
3 3 5 6 9 10 12 10 11 11 16 14 7 5 6 7 6 6 7 7 7 7 7 8 8 8 7 6 6 5 5 5 4 3 4 4 5 5 5 6 6 6 7 8
4 2 1 8 11 12 9 10 10 14 16 8 5 7 7 7 6 7 7 6 6 7 8 8 8 8 7 6 5 5 4 4 3 3 4 5 5 5 6 6 6 7 8 8
3 2 9 10 4 8 9 10 11 10 9 7 7 5 4 5 6 6 5 5 5 5 5 5 5 5 5 4 4 4 4 3 4 4 5 5 5 6 7 6 6 7 8 9
5 5 9 10 6 7 8 10 9 12 11 6 2 1 4 4 4 5 4 3 3 4 4 5 5 5 5 4 3 3 4 4 4 4 5 5 6 7 7 6 7 8 8 9
5 5 9 10 4 4 4 8 6 8 8 5 5 1 5 1 2 2 2 2 3 3 4 5 4 5 5 4 3 4 5 4 4 4 5 6 7 7 6 6 8 9 9 9
6 7 10 9 3 6 5 9 3 5 6 8 8 6 3 2 2 2 3 3 4 4 4 3 4 4 4 3 4 4 3 3 4 5 5 6 6 6 7 7 8 9 10 10
6 6 12 6 8 10 10 3 3 4 5 7 6 3 2 2 3 3 3 3 4 4 3 2 3 3 3 3 3 3 3 4 5 5 6 6 6 7 7 7 9 9 10 10
12 11 6 7 9 6 4 4 4 4 4 6 5 5 4 3 3 3 3 3 3 4 3 1 2 3 3 3 2 2 3 5 5 6 6 6 6 8 7 6 7 8 8 10
6 9 7 7 6 5 5 5 4 4 4 6 6 5 5 4 4 3 3 3 2 3 2 1 2 2 3 3 3 3 4 5 5 6 6 6 6 6 7 7 7 8 9 10
7 7 5 7 9 8 6 4 3 3 4 5 6 5 5 4 4 3 3 2 2 2 2 2 2 3 3 3 3 4 5 6 6 6 7 7 7 7 8 8 9 11 9 9
10 9 8 6 4 5 6 6 6 5 3 3 5 5 4 4 3 3 3 2 2 2 2 3 3 4 4 3 3 4 5 6 5 5 6 6 7 9 13 15 20 22 22 20
6 3 4 2 1 3 4 4 4 5 5 4 3 4 4 3 3 3 2 2 2 2 3 3 3 5 5 4 4 5 6 7 6 6 7 7 8 9 11 12 17 20 22 24
3 3 2 3 3 3 4 4 5 5 4 4 4 4 4 3 2 2 2 2 2 2 3 3 4 6 6 5 5 6 7 9 9 6 7 7 8 9 9 11 12 10 13 20
4 4 4 3 4 4 5 6 7 5 5 4 4 4 4 3 2 1 1 1 1 2 4 4 5 7 5 5 6 7 6 6 6 7 7 8 8 9 9 11 12 12 10 11
3 3 4 5 5 5 5 6 6 5 4 4 3 3 2 2 1 1 1 1 2 4 5 5 6 7 5 5 6 6 6 13 13 8 8 8 8 9 10 10 11 11 11 10
7 5 5 5 5 5 4 5 6 5 4 4 3 2 2 1 0 2 2 3 3 5 5 6 7 7 6 6 6 6 6 9 15 11 8 9 9 9 10 10 11 11 11 13
5 5 6 7 7 7 6 5 5 5 3 3 3 2 1 0 2 3 4 4 4 5 6 6 6 7 6 6 6 6 7 7 8 9 9 9 10 9 9 10 11 13 12 12
5 6 6 7 7 7 6 5 4 3 3 3 2 1 1 2 3 3 4 4 5 7 6 5 11 9 7 9 11 6 7 9 10 9 9 14 13 10 10 11 12 12 12 12
6 7 8 8 7 6 6 5 4 3 2 2 1 0 1 3 3 3 4 5 5 6 6 8 8 7 7 9 13 7 8 9 10 10 10 10 10 11 10 11 12 12 12 11
8 8 8 8 7 6 5 4 4 3 1 1 1 1 3 4 4 4 4 6 6 6 7 12 8 6 7 10 14 8 8 9 9 9 10 10 11 11 11 12 12 12 12 12
7 7 7 7 6 5 3 3 3 2 1 1 1 2 3 4 4 5 5 6 7 11 8 6 6 11 15 17 8 7 8 9 9 9 10 10 11 12 12 12 12 12 12 12
6 6 6 6 5 4 3 2 2 1 0 1 2 3 4 4 4 5 7 5 5 12 10 6 12 20 23 12 6 7 9 10 10 10 10 11 11 12 12 13 12 12 12 12
6 6 5 4 4 4 2 1 1 1 1 2 3 4 4 4 5 4 5 11 14 16 9 12 20 22 21 8 7 8 9 10 10 10 11 11 11 11 12 12 12 12 12 14
6 5 5 4 3 2 1 1 2 2 2 2 3 4 4 4 5 6 6 7 13 15 9 13 20 21 13 8 9 10 10 10 12 12 11 11 11 12 12 12 12 13 13 13
4 3 2 2 1 1 0 1 1 2 3 4 4 4 4 4 5 6 6 8 10 14 11 8 9 13 9 9 10 11 11 12 13 12 12 12 13 13 13 13 15 13 13 13
4 3 2 2 1 1 1 1 2 3 3 4 6 6 5 6 6 7 8 8 8 9 9 9 8 9 10 10 11 11 11 11 11 12 12 12 12 12 13 14 13 13 13 13
Wind_Direction
223 209 176 201 205 189 199 209 218 237 240 257 257 251 257 260 253 241 232 214 204 201 196 189 186 186 185 185 181 175 177 194 214 223 231 242 252 259 263 263 266 267 272 274
243 229 212 237 236 216 219 225 234 253 263 258 261 250 258 255 240 236 233 223 211 201 191 190 190 189 185 185 182 174 186 207 218 226 240 250 256 262 267 270 271 271 272 274
237 269 358 258 227 215 215 213 203 230 248 262 258 251 250 251 239 232 233 224 209 201 197 195 192 185 185 184 171 176 195 213 224 233 247 256 263 269 270 271 271 274 273 273
161 128 236 243 222 206 220 238 219 234 251 251 244 254 257 242 229 234 227 219 210 195 189 183 171 166 160 155 167 182 201 223 236 239 251 261 266 268 270 269 270 273 275 274
152 211 268 288 254 195 203 257 225 225 246 250 230 310 289 244 214 214 210 201 191 179 166 153 155 153 146 155 169 189 215 232 241 243 254 264 267 269 271 272 274 274 274 275
152 193 238 247 235 165 134 275 248 203 223 206 146 210 266 238 159 158 143 139 140 132 127 138 146 142 147 167 185 216 229 239 248 249 254 261 264 269 270 269 276 280 279 273
179 218 255 250 184 130 182 244 238 188 198 176 189 207 210 137 124 123 118 118 122 123 127 143 142 140 158 186 219 232 242 253 259 257 257 261 264 266 272 277 281 280 281 278
167 202 250 213 150 186 216 218 189 189 188 186 202 189 162 157 143 129 120 116 123 124 126 132 140 147 180 227 239 245 253 261 264 264 267 274 269 274 274 277 283 284 285 285
191 212 232 181 200 217 189 197 202 193 195 176 182 194 184 170 159 149 143 137 131 133 132 140 162 171 207 241 249 258 265 267 268 270 266 266 267 275 279 273 277 284 285 287
230 254 244 230 235 239 212 212 212 194 181 172 183 184 177 169 164 159 153 147 137 135 153 212 223 222 229 250 259 259 266 271 273 273 274 269 266 268 272 275 276 281 283 286
238 261 281 260 228 224 218 205 197 190 184 182 173 176 174 173 175 171 159 152 152 170 204 240 256 264 263 259 258 266 269 273 275 272 272 275 269 262 270 260 264 279 280 278
221 219 203 232 224 192 187 199 191 175 168 164 167 167 157 165 167 161 161 157 168 204 233 256 268 276 277 269 260 264 277 276 274 275 275 276 282 286 277 277 285 287 289 289
222 210 198 226 205 167 179 185 170 164 162 150 141 143 145 148 151 150 157 175 204 230 249 263 272 276 276 273 268 263 270 278 278 277 279 281 283 288 294 294 288 289 291 293
207 164 206 213 200 159 142 127 117 110 113 120 123 121 123 124 132 154 193 218 232 252 264 266 269 273 274 273 271 269 271 280 284 277 276 278 280 282 285 291 297 293 290 292
217 201 195 156 125 120 120 119 115 115 112 102 104 115 123 133 162 211 241 249 262 271 272 272 273 277 278 275 274 274 276 276 276 275 275 276 280 282 282 284 287 291 292 291
154 127 134 138 143 136 130 132 134 139 131 123 118 122 130 137 163 264 280 263 267 277 281 280 278 279 282 279 278 278 276 285 291 287 283 283 283 283 284 285 287 288 288 291
152 166 164 161 162 153 148 146 144 142 136 133 139 128 111 96 356 303 294 284 269 269 273 275 277 283 283 278 275 278 279 284 291 292 283 283 282 281 282 283 285 287 286 288
178 174 167 160 156 146 135 127 126 129 133 137 122 110 106 190 276 287 294 302 301 293 281 272 275 283 278 276 276 276 278 280 281 282 283 283 283 280 282 283 285 286 288 291
125 126 124 126 130 130 127 124 122 119 114 114 115 130 247 264 270 278 288 296 296 294 288 282 300 303 289 288 294 282 281 284 285 285 284 288 292 286 284 285 286 287 289 290
108 110 110 107 106 111 115 114 112 104 100 108 112 86 296 288 284 287 289 281 269 267 278 290 293 285 283 286 295 284 281 283 286 289 290 288 288 289 288 287 288 287 286 286
114 113 111 110 103 99 104 111 113 108 94 103 148 258 280 289 289 288 289 292 285 279 289 299 300 291 292 292 296 287 285 287 290 291 291 290 289 289 288 287 287 288 287 287
114 112 110 108 105 95 85 89 99 101 79 27 320 288 289 294 295 288 268 267 285 302 305 291 288 294 301 304 296 292 291 292 292 290 288 288 288 289 288 288 287 288 287 285
108 107 107 107 109 104 83 75 77 82 27 300 293 290 287 286 288 292 298 290 293 303 306 292 299 305 309 309 298 296 295 293 291 290 288 286 285 286 287 287 287 287 286 286
104 102 102 102 101 96 77 36 17 354 303 289 283 281 284 293 292 271 273 299 308 308 303 300 307 310 314 310 299 295 292 290 289 288 287 286 286 286 287 288 288 287 285 285
104 103 103 102 95 89 74 7 348 326 311 295 288 284 278 270 280 293 293 294 302 309 304 305 309 311 311 297 293 291 290 287 288 291 289 291 290 289 288 287 287 288 287 286
99 99 96 95 104 103 33 341 321 315 315 312 309 302 295 289 286 290 294 295 295 304 306 301 299 302 296 292 291 291 290 293 295 293 290 290 289 289 289 288 287 286 286 285
87 85 81 65 44 27 357 326 310 306 306 305 305 304 303 303 302 301 300 301 301 301 299 297 296 295 295 294 294 293 293 293 292 291 291 291 290 289 289 288 288 287 286 285